Regional Weather Roundup
Issued by NWS

Home | Current Version | Previous Version | Graphics & Text | Print | Product List | Glossary On
Versions: 1 2 3 4 5 6 7 8 9 10 11 12 13 14 15 16 17 18 19 20 21 22 23 24 25 26 27 28 29 30 31 32 33 34 35 36 37 38 39 40 41 42 43 44 45 46 47 48 49 50
000
ASUS43 KTOP 262359
RWRKS

WEATHER ROUNDUP FOR KANSAS
NATIONAL WEATHER SERVICE GOODLAND KS
700 PM CDT WED JUL 26 2017

NOTE:  "FAIR" INDICATES FEW OR NO CLOUDS BELOW 12,000 FEET WITH NO
SIGNIFICANT WEATHER AND/OR OBSTRUCTIONS TO VISIBILITY.

KSZ001>006-013>018-027>032-041>047-270100-
NORTHWEST KANSAS

CITY           SKY/WX    TMP DP  RH WIND       PRES   REMARKS
GOODLAND       MOSUNNY   82  66  58 NE14      30.09R
6HR MIN TEMP:  77; 6HR MAX TEMP:  85;

HAYS           SUNNY     92  73  53 NE24      29.92R HX 100
HILL CITY      PTSUNNY   85  73  67 NE16G25   30.00R
6HR MIN TEMP:  85; 6HR MAX TEMP:  95;

RUSSELL        MOSUNNY   90  73  57 NE18      29.91R HX  98
6HR MIN TEMP:  82; 6HR MAX TEMP:  96;

$$

KSZ061>065-074>080-084>089-270100-
SOUTHWEST KANSAS

CITY           SKY/WX    TMP DP  RH WIND       PRES   REMARKS
DODGE CITY     SUNNY     96  66  37 N8        29.97R HX  99
6HR MIN TEMP:  83; 6HR MAX TEMP:  98;

ELKHART          N/A     91  57  31 NE7         N/A
GARDEN CITY    SUNNY     88  66  48 N13       30.01R
6HR MIN TEMP:  87; 6HR MAX TEMP:  92;

GREAT BEND     SUNNY     97  66  36 S8        29.90F HX 100
LIBERAL        MOSUNNY   94  69  44 NE18      29.98R HX  99
$$

KSZ066>073-081>083-090>101-270100-
SOUTHEAST KANSAS

CITY           SKY/WX    TMP DP  RH WIND       PRES   REMARKS
CHANUTE        CLOUDY    91  72  53 S12       29.93F HX  98
6HR MIN TEMP:  88; 6HR MAX TEMP:  96;

COFFEYVILLE    MOSUNNY   92  72  51 S12       29.93F HX  99
6HR MIN TEMP:  92; 6HR MAX TEMP:  96;

HUTCHINSON     CLOUDY    87  71  58 SE6       29.90F
6HR MIN TEMP:  81; 6HR MAX TEMP:  96; 6HR PCP: TRACE;

MEDICINE LODGE   N/A     96  65  35 SW7       29.88R HX  98
NEWTON         CLOUDY    76  72  87 E7        29.92F
PARSONS        MOSUNNY   90  72  55 S7        29.94F HX  97
6HR MIN TEMP:  89; 6HR MAX TEMP:  95;

WICHITA INTL   CLOUDY    83  76  79 E3        29.89F
6HR MIN TEMP:  79; 6HR MAX TEMP: 100; 6HR PCP:  0.32;

WICHITA JABRA  CLOUDY    76  73  91 SE5       29.90F
6HR MIN TEMP:  75; 6HR MAX TEMP:  96; 6HR PCP:  0.49;

WINFIELD       CLOUDY    92  69  47 SE13      29.91F HX  97
6HR MIN TEMP:  92; 6HR MAX TEMP: 100;

$$

KSZ007>012-019>026-033>040-048>060-102>105-270100-
NORTHEAST KANSAS

CITY           SKY/WX    TMP DP  RH WIND       PRES   REMARKS
CONCORDIA      CLOUDY    81  75  82 E9        29.97S
6HR MIN TEMP:  74; 6HR MAX TEMP:  84; 6HR PCP:  0.06;

EMPORIA        PTSUNNY   76  73  91 E6        29.93S
6HR MIN TEMP:  74; 6HR MAX TEMP:  87; 6HR PCP:  0.08;

LAWRENCE       CLOUDY    78  77  96 NE5       29.94S
6HR MIN TEMP:  77; 6HR MAX TEMP:  82; 6HR PCP:  0.36;

MANHATTAN      CLOUDY    80  76  87 NE6       29.93S
6HR MIN TEMP:  77; 6HR MAX TEMP:  81; 6HR PCP:  0.40;

OLATHE IND     CLOUDY    78  76  93 NE8       29.97R
6HR MIN TEMP:  78; 6HR MAX TEMP:  82; 6HR PCP:  0.13;

OLATHE EXE     LGT RAIN  78  78 100 N10       29.98R FOG
6HR MIN TEMP:  77; 6HR MAX TEMP:  81; 6HR PCP:  0.17;

SALINA         CLOUDY    90  72  55 SE10      29.91S HX  97
6HR MIN TEMP:  80; 6HR MAX TEMP:  91; 6HR PCP:  0.05;

TOPEKA BILLARD CLOUDY    79  78  97 E6        29.93S
6HR MIN TEMP:  76; 6HR MAX TEMP:  80; 6HR PCP:  0.47;

TOPEKA FORBES  CLOUDY    80  78  94 SE8       29.93F
6HR MIN TEMP:  77; 6HR MAX TEMP:  81; 6HR PCP:  0.57;

$$




USA.gov is the U.S. government's official web portal to all federal, state and local government web resources and services.